Regional Weather Roundup
Issued by NWS State College, PA

Home | Current Version | Previous Version | Text Only | Print | Product List | Glossary On
Versions: 1 2 3 4 5 6 7 8 9 10 11 12 13 14 15 16 17 18 19 20 21 22 23 24 25 26 27 28 29 30 31 32 33 34 35 36 37 38 39 40 41 42 43 44 45 46 47 48 49 50
000
ASUS41 KCTP 212010
RWRCTP

REGIONAL WEATHER ROUNDUP
NATIONAL WEATHER SERVICE STATE COLLEGE PA
400 PM EDT MON AUG 21 2017

Note: "fair" indicates few or no clouds below 12,000 feet with no
significant weather and/or obstructions to visibility.

* = STATION THAT DOES NOT REPORT PRECIPITATION /E.G. RAIN...SNOW...ETC/
    THUNDER OR FOG.

PAZ002>004-007>009-013>016-020>023-029>032-212100-
WESTERN PENNSYLVANIA

CITY           SKY/WX    TMP DP  RH WIND       PRES   REMARKS
ERIE           SUNNY     83  69  62 CALM      30.09F
MEADVILLE      SUNNY     82  67  60 W6        30.13F
FRANKLIN*      MOSUNNY   84  64  51 NW6       30.14F
NEW CASTLE     MOCLDY    84  71  65 SW6       30.13S
BEAVER COUNTY  NOT AVBL
BUTLER*        MOSUNNY   84  72  65 SW10      30.14F
PITTSBURGH INT CLOUDY    84  71  65 S10       30.14F
PITTSBURGH     MOSUNNY   83  69  62 SW9       30.14F
INDIANA*       SUNNY     77  72  83 W15       30.19S
LATROBE        NOT AVBL
WASHINGTON CO* MOSUNNY   82  70  65 SW9       30.16R
$$

PAZ004>006-010>012-017>019-024>028-033>037-041-042-045-046-049>053-212100-
CENTRAL PENNSYLVANIA

CITY           SKY/WX    TMP DP  RH WIND       PRES   REMARKS
BRADFORD       SUNNY     81  62  52 VRB6      30.16F
DUBOIS         MOSUNNY   84  65  52 SW8       30.15F
CLEARFIELD     SUNNY     83  70  64 SW13G18   30.15F
JOHNSTOWN      MOSUNNY   79  67  66 W8        30.21S
ALTOONA        MOSUNNY   83  72  69 VRB5      30.18S
STATE COLLEGE  SUNNY     81  68  65 CALM      30.15F
WILLIAMSPORT   TSTM      73  69  87 NW21G28   30.13R FOG
SELINSGROVE    CLOUDY    84  74  71 S6        30.12S
FT INDIANTOWN  PTSUNNY   83  74  74 S6        30.12F
CAPITAL CITY   PTSUNNY   89  72  56 SW8       30.11F HX  96
HARRISBURG     PTSUNNY   89  74  60 CALM      30.10F HX  98
YORK           SUNNY     86  74  67 SW8       30.12F
$$

PAZ038>040-043-044-047-048-054-055-060>062-067>071-212100-
EASTERN PENNSYLVANIA

CITY           SKY/WX    TMP DP  RH WIND       PRES   REMARKS
SCRANTON       MOSUNNY   85  69  58 SW8       30.13F
MOUNT POCONO   MOSUNNY   77  70  79 SW10      30.19F
ALLENTOWN      SUNNY     85  71  63 SW10      30.13F
QUAKERTOWN*    PTCLDY    82  72  69 SW7       30.15F
READING        MOSUNNY   86  75  69 S7        30.11F HX  95
LANCASTER      SUNNY     86  74  67 S8        30.12F
COATESVILLE    CLEAR     82  72  69 S7        30.17F
POTTSTOWN      SUNNY     83  70  64 S10       30.15F
BLUE BELL      CLOUDY    81  70  69 S6        30.16F
DOYLESTOWN     MOSUNNY   82  69  64 S7        30.13F
WILLOW GROVE   NOT AVBL
NORTH PHILA    CLOUDY    85  68  56 SW9       30.15F
PHILADELPHIA   CLOUDY    84  66  54 S10       30.15S
$$



USA.gov is the U.S. government's official web portal to all federal, state and local government web resources and services.